Weather in Argunovo

Russia / Vologda Oblast     59°51′30″N   45°06′22″E
temp.,
°C
wind,
m/s
gust,
m/s
humid.,
%
clouds,
%
prec.,
mm/h
press.,
hPa
HPBL,
m
23 october, sat
sat2300:00+5wsw6137948 0.0 9911014
03:00+5wsw61268100 0.1 9931547
06:00+4sw61374100 0.1 9941321
09:00+5sw61271100 0.1 9951311
12:00+5sw51179100 0.0 9981482
15:00+5sw5108286 0.1 999959
18:00+4sw498599 0.6 1001459
21:00+4sw3794100 1.6 1002880
24 october, sun
sun2400:00+4sw2696100 1.1 1003666
03:00+3w2394100 1.5 1003454
06:00+3wnw139699 0.1 1003291
09:00+3w1397100 0.4 1004569
12:00+2nnw3699100 0.9 1005402
15:00+1n4895100 1.3 1008595
18:00−1n5992100 0.6 1011738
21:00−1n4981100 0.9 1014804
25 october, mon
mon2500:00−2nnw4108944 0.0 1016604
03:00−3nw410905 0.0 1018452
06:00−3wnw411885 0.0 1020436
09:00−2wnw410745 0.0 1021522
12:000wnw48585 0.0 1021748
15:000wnw485890 0.0 1022829
18:00−2wsw277491 0.0 1022241
21:00−1sw2779100 0.0 1021343
26 october, tue
tue2600:00−1ssw378389 0.0 1020641
03:00−2s4994100 0.3 1018563
06:00−1ssw41096100 0.9 1015444
09:000sw41097100 2.2 1014633
12:00+1sw41197100 0.3 1013611
15:00+1wsw41197100 0.3 1012624
18:00+2wsw41195100 0.1 1013584
21:00+2wsw41091100 0.1 1012512
27 october, wed
wed2700:00+1sw4993100 0.1 1012442
03:00+1sw4993100 0.1 1011429
06:00+1sw41095100 0.0 1009501
09:00+1sw41195100 0.0 1008452
12:00+2sw41194100 0.0 1008469
15:00+1sw41097100 0.9 1007465
18:00+2sw41097100 0.1 1007495
21:00+2sw41097100 0.1 1006507